EW5037 Weather Reports


Display with metric or nautical units.
time (UTC)temp
F
wind
direction
speed
MPH
gust
MPH
rain 1hr
in
rain 24hr
in
rain mn
in
humidity
%
barometer
mb
20260510104242 68 68 2.0 4.0 0.00 0.00 0.00 86 1014.2
20260510103154 68 23 3.0 4.0 0.00 0.00 0.00 86 1014.3
20260510102549 68 45 2.0 3.0 0.00 0.00 0.00 86 1013.7
20260510101021 68 23 1.0 3.0 0.00 0.00 0.00 86 1013.7
20260510095936 69 0 1.0 2.0 0.00 0.00 0.00 86 1014.2
20260510095330 68 23 1.0 3.0 0.00 0.00 0.00 86 1014.2
20260510093805 68 68 2.0 3.0 0.00 0.00 0.00 86 1014.0
20260510092720 68 315 3.0 4.0 0.00 0.00 0.00 86 1014.0
20260510091636 68 338 2.0 5.0 0.00 0.00 0.00 86 1013.9
20260510090547 68 338 0.0 0.0 0.00 0.00 0.00 86 1013.9
20260510085939 69 23 0.0 2.0 0.00 0.00 0.00 86 1013.6
20260510084418 69 45 2.0 3.0 0.00 0.00 0.00 86 1013.6
20260510083329 69 23 2.0 4.0 0.00 0.00 0.00 86 1013.7
20260510082726 69 338 3.0 4.0 0.00 0.00 0.00 86 1013.7
20260510081216 69 23 2.0 3.0 0.00 0.00 0.00 86 1013.4
20260510080117 69 338 2.0 4.0 0.00 0.00 0.00 86 1013.3
20260510075027 69 0 2.0 5.0 0.00 0.00 0.00 86 1013.3
20260510073938 69 158 2.0 5.0 0.00 0.00 0.00 86 1013.6
20260510072853 69 338 2.0 4.0 0.00 0.00 0.00 86 1013.6
20260510071805 69 45 4.0 7.0 0.00 0.00 0.00 86 1013.4
20260510070725 69 315 1.0 6.0 0.00 0.00 0.00 86 1013.4
20260510065632 69 315 0.0 0.0 0.00 0.00 0.00 86 1012.6
20260510065021 70 135 0.0 0.0 0.00 0.00 0.00 86 1012.6
20260510063502 70 180 0.0 0.0 0.00 0.00 0.00 86 1013.0
20260510062417 70 248 0.0 0.0 0.00 0.00 0.00 85 1013.0
20260510061326 70 158 2.0 4.0 0.00 0.00 0.00 85 1013.1
20260510060246 70 113 2.0 4.0 0.00 0.00 0.00 86 1013.1
20260510055155 70 158 4.0 8.0 0.00 0.00 0.00 86 1012.7
20260510055025 70 158 3.0 6.0 0.00 0.00 0.00 86 1012.9
20260510053032 70 135 3.0 4.0 0.00 0.00 0.00 86 1012.9
20260510051937 71 158 4.0 3.0 0.00 0.00 0.00 87 1013.4
20260510050850 71 158 4.0 7.0 0.00 0.00 0.00 87 1013.4
20260510045810 71 113 4.0 7.0 0.00 0.00 0.00 87 1013.6
20260510044720 71 113 4.0 7.0 0.00 0.00 0.00 87 1013.6
20260510043634 71 135 3.0 6.0 0.00 0.00 0.00 87 1014.4
20260510043031 71 90 4.0 6.0 0.00 0.00 0.00 87 1014.4
20260510041507 71 113 3.0 4.0 0.00 0.00 0.00 87 1014.6
20260510040857 71 180 0.0 2.0 0.00 0.00 0.00 87 1014.6
20260510035336 71 68 1.0 2.0 0.00 0.00 0.00 87 1014.7
20260510034245 71 45 0.0 2.0 0.00 0.00 0.00 87 1014.7
20260510033159 71 68 2.0 3.0 0.00 0.00 0.00 87 1015.1
20260510032111 71 113 2.0 4.0 0.00 0.00 0.00 87 1015.0
20260510031033 71 135 2.0 4.0 0.00 0.00 0.00 87 1015.0
20260510030413 71 135 2.0 5.0 0.00 0.00 0.00 87 1014.4
20260510024859 71 135 4.0 5.0 0.00 0.00 0.00 87 1014.4
20260510023809 71 135 3.0 4.0 0.00 0.00 0.00 88 1014.3
20260510022724 71 68 2.0 4.0 0.00 0.00 0.00 88 1014.3
20260510021635 71 113 2.0 4.0 0.00 0.00 0.00 88 1014.0
20260510021042 71 113 3.0 4.0 0.00 0.00 0.00 88 1014.0
20260510015945 71 113 4.0 8.0 0.00 0.00 0.00 88 1013.6
20260510014427 71 135 4.0 4.0 0.00 0.00 0.00 88 1013.6
20260510013333 70 113 5.0 8.0 0.00 0.00 0.00 88 1013.2
20260510012250 70 113 6.0 9.0 0.00 0.00 0.00 87 1013.2
20260510011638 70 135 5.0 8.0 0.00 0.00 0.00 87 1013.3
20260510010121 70 113 4.0 6.0 0.00 0.00 0.00 87 1013.3
20260510005032 70 113 3.0 5.0 0.00 0.00 0.00 87 1013.3
20260510003950 70 135 3.0 4.0 0.00 0.00 0.00 87 1013.2
20260510003821 70 68 3.0 4.0 0.00 0.00 0.00 87 1013.2
20260510001818 70 68 2.0 4.0 0.00 0.00 0.00 87 1013.7
20260510001209 70 68 1.0 3.0 0.00 0.00 0.00 87 1013.7
20260509235640 70 68 2.0 3.0 0.00 0.00 0.00 87 1013.4
20260509234556 70 113 3.0 4.0 0.00 0.00 0.00 87 1013.4
20260509233516 70 68 2.0 4.0 0.00 0.00 0.00 87 1013.5
20260509232427 70 68 2.0 4.0 0.00 0.00 0.00 87 1013.5
20260509231341 70 45 3.0 3.0 0.00 0.00 0.00 87 1013.2
20260509230253 70 45 3.0 5.0 0.00 0.00 0.00 87 1013.2
20260509225208 70 68 4.0 6.0 0.00 0.00 0.00 87 1012.9
20260509224123 70 135 4.0 5.0 0.00 0.00 0.00 87 1012.4
20260509223041 70 113 4.0 7.0 0.00 0.00 0.00 87 1012.4
20260509221950 70 68 3.0 7.0 0.00 0.00 0.00 87 1012.9
20260509220902 70 135 3.0 6.0 0.00 0.00 0.00 87 1012.9
20260509215820 70 113 1.0 4.0 0.00 0.00 0.00 87 1012.2
20260509214731 70 45 2.0 4.0 0.00 0.00 0.00 87 1012.2
20260509214123 70 113 2.0 4.0 0.00 0.00 0.00 87 1011.5
20260509212602 70 90 3.0 5.0 0.00 0.00 0.00 87 1011.5
20260509211514 70 68 4.0 5.0 0.00 0.00 0.00 87 1012.7
20260509210428 70 90 4.0 6.0 0.00 0.00 0.00 87 1012.7
20260509205342 69 68 3.0 6.0 0.00 0.00 0.00 87 1012.5
20260509204256 69 68 3.0 4.0 0.00 0.00 0.00 87 1012.5
20260509203211 69 113 4.0 9.0 0.00 0.00 0.00 87 1012.4
20260509202131 69 45 5.0 9.0 0.00 0.00 0.00 87 1012.4
20260509201514 69 68 5.0 7.0 0.00 0.00 0.00 87 1012.4
20260509195953 69 68 5.0 9.0 0.00 0.00 0.00 87 1013.3
20260509195354 69 68 6.0 11.0 0.00 0.00 0.00 87 1013.3
20260509193823 69 68 6.0 11.0 0.00 0.00 0.00 87 1013.6
20260509192737 69 68 4.0 7.0 0.00 0.00 0.00 87 1013.6
20260509191657 69 248 2.0 5.0 0.00 0.00 0.00 87 1013.2
20260509190606 69 45 4.0 6.0 0.00 0.00 0.00 87 1013.2
20260509185520 69 113 3.0 7.0 0.00 0.00 0.00 87 1014.2
20260509184919 69 68 4.0 5.0 0.00 0.00 0.00 87 1014.2
20260509183351 69 90 4.0 8.0 0.00 0.00 0.00 87 1015.1
20260509182306 69 293 2.0 7.0 0.00 0.00 0.00 87 1015.1
20260509181224 69 68 6.0 8.0 0.00 0.00 0.00 87 1013.8
20260509180131 69 68 7.0 11.0 0.00 0.00 0.00 87 1013.7
20260509175045 69 68 8.0 10.0 0.00 0.00 0.00 87 1013.7
20260509174440 69 68 4.0 7.0 0.00 0.00 0.00 86 1014.2
20260509173348 69 135 7.0 12.0 0.00 0.00 0.00 86 1014.2
20260509171827 69 45 7.0 12.0 0.00 0.00 0.00 86 1014.6
20260509170751 69 338 7.0 12.0 0.00 0.00 0.00 86 1014.6
20260509165654 69 68 6.0 10.0 0.00 0.00 0.00 86 1014.3
20260509164609 69 45 6.0 11.0 0.00 0.00 0.00 86 1014.3
20260509163522 70 68 6.0 8.0 0.00 0.00 0.00 86 1014.8
20260509162437 69 23 6.0 11.0 0.00 0.00 0.00 86 1014.8
20260509161352 69 90 4.0 7.0 0.00 0.00 0.00 85 1014.8
20260509160309 70 45 2.0 5.0 0.00 0.00 0.00 85 1014.8
20260509155218 69 338 4.0 10.0 0.00 0.00 0.00 85 1014.4
20260509154133 69 338 5.0 8.0 0.00 0.00 0.00 85 1014.5
20260509153530 69 23 4.0 7.0 0.00 0.00 0.00 85 1014.5
20260509152435 69 23 5.0 9.0 0.00 0.00 0.00 84 1014.4
20260509150912 69 315 4.0 6.0 0.00 0.00 0.00 84 1014.4
20260509150752 69 23 5.0 9.0 0.00 0.00 0.00 84 1014.2
20260509145224 69 338 8.0 15.0 0.00 0.00 0.00 83 1014.2
20260509143658 69 68 10.0 15.0 0.00 0.00 0.00 82 1013.9
20260509142610 71 23 11.0 13.0 0.00 0.00 0.00 79 1013.9
20260509141524 72 338 9.0 16.0 0.00 0.00 0.00 79 1013.7
20260509140440 73 338 12.0 22.0 0.00 0.00 0.00 80 1013.7
20260509135358 77 0 2.0 6.0 0.00 0.00 0.00 85 1012.8
20260509134309 78 203 4.0 8.0 0.00 0.00 0.00 85 1012.8
20260509133223 77 158 5.0 9.0 0.00 0.00 0.00 85 1012.4
20260509132137 77 158 4.0 8.0 0.00 0.00 0.00 86 1012.4
20260509131052 77 158 4.0 9.0 0.00 0.00 0.00 86 1012.4
20260509130007 77 180 4.0 9.0 0.00 0.00 0.00 86 1012.2
20260509124926 77 180 3.0 7.0 0.00 0.00 0.00 86 1012.2
20260509123834 76 180 4.0 8.0 0.00 0.00 0.00 86 1012.1
20260509122746 76 158 3.0 5.0 0.00 0.00 0.00 86 1012.1
20260509122619 76 158 4.0 8.0 0.00 0.00 0.00 86 1012.1
20260509120617 76 135 3.0 5.0 0.00 0.00 0.00 85 1012.1
20260509115528 76 180 3.0 5.0 0.00 0.00 0.00 85 1011.9
20260509114446 76 158 2.0 4.0 0.00 0.00 0.00 85 1011.9
20260509113852 76 158 2.0 4.0 0.00 0.00 0.00 85 1011.9
20260509112310 76 180 3.0 6.0 0.00 0.00 0.00 85 1011.9
20260509111224 76 135 4.0 7.0 0.00 0.00 0.00 85 1011.3
20260509110138 75 135 4.0 8.0 0.00 0.00 0.00 85 1010.9
20260509105051 75 135 5.0 7.0 0.00 0.00 0.00 84 1010.9